This is the latest recevied weather packets stored in our database for station/object KC4JIR. If no packets are shown the sender has not sent any weather packets the latest 10 day(s).
| Time | Temp. | Humidity | Pressure | Rain* | Wind** | Luminosity | Snow |
|---|---|---|---|---|---|---|---|
| 1777933745 | 26.67° C | 36% | 1012.5 hPa | 0 mm | - | 70 W/m² | - |
| 1777933442 | 26.67° C | 36% | 1012.2 hPa | 0 mm | - | 254 W/m² | - |
| 1777933140 | 26.11° C | 32% | 1012.6 hPa | 0 mm | - | 180 W/m² | - |
| 1777932837 | 26.67° C | 30% | 1012.6 hPa | 0 mm | - | 244 W/m² | - |
| 1777932534 | 26.67° C | 30% | 1012.5 hPa | 0 mm | - | 140 W/m² | - |
| 1777932230 | 27.22° C | 32% | 1012.5 hPa | 0 mm | - | 140 W/m² | - |
| 1777931928 | 26.67° C | 32% | 1012.8 hPa | 0 mm | - | 310 W/m² | - |
| 1777931624 | 26.67° C | 33% | 1012.6 hPa | 0 mm | - | 348 W/m² | - |
| 1777931320 | 26.67° C | 32% | 1012.5 hPa | 0 mm | - | 288 W/m² | - |
| 1777931018 | 27.22° C | 34% | 1012.6 hPa | 0 mm | - | 225 W/m² | - |
| 1777930714 | 27.78° C | 31% | 1012.7 hPa | 0 mm | - | 337 W/m² | - |
| 1777930410 | 27.22° C | 32% | 1012.5 hPa | 0 mm | - | 371 W/m² | - |
| 1777930107 | 26.11° C | 32% | 1012.5 hPa | 0 mm | - | 352 W/m² | - |
| 1777929803 | 26.67° C | 34% | 1012.5 hPa | 0 mm | - | 311 W/m² | - |
| 1777929502 | 26.67° C | 35% | 1012.6 hPa | 0 mm | - | 374 W/m² | - |
| 1777929197 | 27.22° C | 33% | 1012.7 hPa | 0 mm | - | 295 W/m² | - |
| 1777928895 | 27.22° C | 34% | 1012.4 hPa | 0 mm | - | 472 W/m² | - |
| 1777928592 | 27.22° C | 33% | 1012.6 hPa | 0 mm | - | 371 W/m² | - |
| 1777928289 | 27.22° C | 32% | 1012.5 hPa | 0 mm | - | 547 W/m² | - |
| 1777927987 | 27.78° C | 34% | 1012.5 hPa | 0 mm | - | 490 W/m² | - |
| 1777927685 | 28.33° C | 29% | 1012.6 hPa | 0 mm | - | 417 W/m² | - |
| 1777927383 | 27.78° C | 34% | 1012.7 hPa | 0 mm | - | 554 W/m² | - |
| 1777927082 | 27.78° C | 37% | 1012.6 hPa | 0 mm | - | 540 W/m² | - |
| 1777926779 | 27.78° C | 33% | 1012.4 hPa | 0 mm | - | 487 W/m² | - |
| 1777926479 | 27.78° C | 34% | 1012.8 hPa | 0 mm | - | 571 W/m² | - |
* Rain latest hour (hover to see other rain measurements)
** Current wind speed in m/s (hover to see current wind gust speed)